ATLAS 5 CENTAUR DEB, 43975

Orbit data source: Space-Track

ATLAS 5 CENTAUR DEB, 43975 is space debris in HEO originally from a launch on Wed, 17 Sep 2014 UTC launched from the Air Force Eastern Test Range (AFETR). Debris objects in space refer to the collection of defunct objects orbiting the Earth. Examples of debris include non-operational satellites, rocket bodies, and fragments generated from explosions, collisions, or faulty payload assembly.

Loading next visibility...
Identifier
43975, 2014-055AE
Orbit
HEO
Country
Flag of USUS
Related business
Flag of USUnited Launch Alliance/Lockheed Martin (US)
Manufacturer
Unknown
Mission
Spacecraft
Bus & Motor
Unknown
Mass
Unknown
Launch date (UTC)
2014-09-17 (12 years ago)
Launch vehicle
Unknown
Launch site
Air Force Eastern Test Range (AFETR)
Object type
Payload
Rocket body
Debris
Shape & HBR
Unknown shape, 1.1 m
Radar Cross Section
Medium (>0.1 m² and <1 m²)

Expand to show TLE details & history
Last TLE update: 1 year ago

TLE from 1 year ago
0 ATLAS 5 CENTAUR DEB
1 43975U 14055AE  25249.69989522  .00000006  00000-0  00000-0 0  9991
2 43975  20.7548 126.6478 5002287 196.5106 138.2613  1.93215598 49507
Epoch: 2025-09-06T16:47Z
TLE epoch observation values (Epoch: 2025-09-06T16:47:50.947Z)
Latitude
0.00008°
Longitude
-111.28538°
Altitude
32,862.197 km
Speed
2.383 km/s
True Right ascension
08h 26m 49s
True Declination
0° 00' 00"
Sunlit
Object was in daylight at epoch
Visualization orbit readout
Latitude
Unknown
Longitude
Unknown
Altitude
Unknown
Speed
Unknown
Apparent Right ascension
Unknown
Apparent Declination
Unknown
Sunlit
N/A
Visualization observer readout
Local Sidereal Time
01:56:23
Azimuth
Unknown
Elevation
Unknown
Doppler factor
Unknown
Orbital elements
Apogee altitude
34,475.467 km
Perigee altitude
7,231.427 km
Semi-major axis
27,231.584 km
Eccentricity
0.50023
Inclination
20.7548°
RAAN
126.6478°
Arg. of periapsis
196.5106°
True anomaly
163.50402°
Mean anomaly
138.2613°
Eccentric anomaly
151.80352°
Mean motion
0.48299 °/min
Orbital period
745.36 mins
BSTAR
0
Loading maneuver chart data...
Computing Atmospheric mass density...

Documentation

Showing up to 5 results
|